[[{"header":{"parameterUnit":"m.s-1","parameterCategory":1,"la1":30.2991,"la2":30.254,"lo1":-89.0895,"lo2":-89.0444,"dy":0.0017,"dx":0.0017,"nx":28,"ny":28,"refTime":"2023-08-02T09:00:00:Z","depth":0,"parameterNumber":2,"parameterNumberName":"U-component_of_WINDS"},"data":[0,0,0,0,0,0,0,0,0,0,0,0,0,0,0,0,0,0,0,0,0,0,0,0,0,0,0,0,0,0,0,0,0,0,0,0,0,0,0,0,0,0,0,0,0,0,0,0,0,0,0,0,0,0,0,0,0,0,0.2534,0.2535,0,0.2642,0.2643,0.2645,0.2707,0.2707,0.2707,0.2708,0.2818,0.2821,0.2824,0,0,0,0,0,0,0,0,0,0,0,0,0,0.238,0.2382,0.2534,0.2535,0.2537,0.2642,0.2644,0.2645,0.2707,0.2707,0.2707,0.2708,0.2818,0.2821,0.2824,0,0,0,0,0,0,0,0,0,0,0,0,0,0.2463,0.2383,0.2534,0.258,0.2586,0.2642,0.2644,0.2645,0.2707,0.2707,0.2708,0.2708,0.2816,0.282,0.2824,0.2843,0,0,0.2837,0.2839,0,0,0,0,0,0,0,0,0.2458,0.2469,0.2572,0.2577,0.2583,0.2662,0.263,0.2712,0.2707,0.2661,0.2708,0.2708,0.2766,0.2774,0.2794,0.2848,0.2853,0.2837,0.284,0.2842,0.2843,0,0,0,0,0,0,0,0.2453,0.2465,0.2577,0.2574,0.258,0.2595,0.2608,0.2646,0.271,0.2665,0.267,0.2682,0.2769,0.279,0.2797,0.2854,0.2837,0.2841,0.2843,0.2845,0.2928,0.2927,0,0,0,0,0,0,0.244,0.2459,0.2573,0.258,0.252,0.2598,0.2612,0.2636,0.271,0.2721,0.2681,0.2684,0.2782,0.2792,0.2801,0.2826,0.2842,0.2845,0.2848,0.2928,0.2927,0.2927,0,0,0,0,0,0,0.2436,0.2449,0.2569,0.2521,0.2538,0.26,0.2627,0.2638,0.2659,0.2722,0.2734,0.269,0.2783,0.2795,0.2832,0.2831,0.2847,0.2851,0.2928,0.2928,0.2927,0.2877,0,0,0,0,0,0,0.2431,0.2447,0.2455,0.2521,0.254,0.2598,0.2627,0.264,0.2666,0.267,0.2734,0.2745,0.2784,0.2825,0.2836,0.2837,0.2854,0.2928,0.2928,0.2927,0.2879,0.2875,0.2872,0,0,0,0,0,0.2426,0.2437,0.2455,0.2469,0.2551,0.2598,0.2609,0.2654,0.2665,0.2673,0.2714,0.2743,0.2829,0.2828,0.2841,0.2843,0.2929,0.2928,0.2927,0.2881,0.2876,0.2872,0,0,0,0,0,0,0.237,0.2447,0.2468,0.2501,0.2542,0.2608,0.262,0.2647,0.2687,0.2689,0.2744,0.2758,0.2788,0.282,0.2817,0.2864,0.2882,0.2884,0.2842,0.2838,0.2835,0.2826,0.2858,0,0,0,0,0,0.2362,0.2394,0.2459,0.2482,0.2502,0.2557,0.2579,0.261,0.2655,0.2673,0.2717,0.2759,0.2796,0.2819,0.2856,0.2884,0.2898,0.2892,0.2888,0.2885,0.2885,0.2901,0.2899,0.2925,0.2925,0.2925,0,0,0.2345,0.2391,0.2408,0.2472,0.2508,0.2539,0.2571,0.2603,0.2627,0.2678,0.2715,0.2748,0.2799,0.2831,0.2847,0.2858,0.2881,0.2884,0.2881,0.2883,0.29,0.2898,0.2895,0.2925,0.2925,0.2925,0,0,0.233,0.2368,0.2391,0.2426,0.248,0.2516,0.2521,0.2583,0.2607,0.2645,0.2683,0.2712,0.2774,0.2809,0.2834,0.2831,0.2858,0.2842,0.2822,0.2836,0.2834,0.2833,0.283,0.2829,0.2842,0.2842,0.2842,0,0.2302,0.2351,0.2399,0.2429,0.2455,0.2503,0.2526,0.2557,0.262,0.2637,0.2648,0.2727,0.2765,0.2804,0.2803,0.2823,0.283,0.2834,0.2831,0.283,0.2829,0.2827,0.2826,0.284,0.284,0.284,0.284,0,0.2314,0.2347,0.2359,0.2418,0.2446,0.2472,0.2524,0.2546,0.2574,0.2609,0.2646,0.2693,0.274,0.2752,0.2781,0.2796,0.2801,0.282,0.284,0.2823,0.2822,0.2822,0.2836,0.2837,0.2838,0.2838,0,0,0.2267,0.2352,0.2356,0.2383,0.2445,0.2471,0.2499,0.2545,0.2562,0.2604,0.2628,0.2679,0.2697,0.2726,0.2759,0.2772,0.2764,0.279,0.2792,0.2783,0.2782,0.2766,0.2765,0.2783,0.2783,0.2783,0.2778,0,0.2261,0.2313,0.2357,0.2393,0.2423,0.2468,0.2492,0.2532,0.2566,0.2596,0.2633,0.2668,0.269,0.2708,0.2722,0.2762,0.2765,0.2763,0.2805,0.2806,0.279,0.2765,0.2748,0.2741,0.2778,0.2778,0.2778,0,0.226,0.23,0.2338,0.2396,0.2411,0.2431,0.2476,0.2505,0.2551,0.2575,0.2606,0.264,0.267,0.2686,0.2728,0.2726,0.2746,0.2768,0.2769,0.2774,0.279,0.2768,0.274,0.2738,0.2778,0.2778,0.2778,0,0.2221,0.2284,0.2315,0.2337,0.2405,0.2418,0.2448,0.2494,0.2518,0.2558,0.2574,0.2616,0.2639,0.267,0.2714,0.2722,0.2751,0.2771,0.277,0.2769,0.2774,0.2773,0.2747,0.2788,0.2788,0.2788,0.2788,0,0.2209,0.223,0.2298,0.2317,0.2342,0.2392,0.2415,0.2448,0.2489,0.2514,0.2556,0.2579,0.2636,0.2665,0.27,0.2729,0.2739,0.2758,0.2767,0.2754,0.2751,0.2767,0.2769,0.2788,0.2788,0.2788,0.2788,0,0.2169,0.2215,0.2252,0.2314,0.233,0.2345,0.2398,0.2418,0.2453,0.2485,0.2495,0.255,0.2587,0.2634,0.2686,0.2709,0.2734,0.2748,0.2718,0.2723,0.2719,0.2718,0.2702,0.2702,0.2743,0.2742,0.2742,0,0.2158,0.2176,0.2239,0.2259,0.2287,0.2319,0.2344,0.2393,0.2417,0.247,0.2483,0.2523,0.2557,0.2614,0.2658,0.2698,0.2713,0.2704,0.2719,0.2705,0.2711,0.2709,0.2711,0.27,0.27,0.2699,0.2699,0,0.2132,0.2154,0.2189,0.223,0.2259,0.2294,0.2331,0.2345,0.2402,0.2427,0.2465,0.2491,0.2544,0.2583,0.2628,0.2658,0.2687,0.2694,0.2695,0.2682,0.2663,0.2672,0.2707,0.2694,0.2694,0.2695,0.2695,0.2695,0.2106,0.2123,0.217,0.2207,0.224,0.2273,0.2294,0.2332,0.2365,0.2411,0.2438,0.2475,0.252,0.2583,0.2611,0.264,0.2652,0.2654,0.2655,0.2655,0.265,0.2659,0.2649,0.2649,0.2649,0.265,0.265,0,0.2082,0.2114,0.2147,0.2198,0.2226,0.2251,0.2294,0.2315,0.2347,0.2387,0.2419,0.2462,0.25,0.2547,0.2587,0.2602,0.2616,0.261,0.261,0.2616,0.2638,0.2632,0.2598,0.2598,0.2598,0.2598,0.2598,0.2598,0.2072,0.2103,0.213,0.2176,0.2209,0.2245,0.2266,0.2297,0.2329,0.2375,0.2406,0.2436,0.2479,0.2522,0.2557,0.257,0.2583,0.2573,0.2589,0.261,0.2614,0.2619,0.2613,0.2575,0.2575,0.2564,0.2564,0.2564]},{"header":{"parameterUnit":"m.s-1","parameterCategory":1,"la1":30.2991,"la2":30.254,"lo1":-89.0895,"lo2":-89.0444,"dy":0.0017,"dx":0.0017,"nx":28,"ny":28,"refTime":"2023-08-02T09:00:00:Z","depth":0,"parameterNumber":3,"parameterNumberName":"V-component_of_WINDS"},"data":[0,0,0,0,0,0,0,0,0,0,0,0,0,0,0,0,0,0,0,0,0,0,0,0,0,0,0,0,0,0,0,0,0,0,0,0,0,0,0,0,0,0,0,0,0,0,0,0,0,0,0,0,0,0,0,0,0,0,3.4748,3.4748,0,3.4756,3.4756,3.4756,3.4738,3.4737,3.4737,3.4736,3.4744,3.4744,3.4745,0,0,0,0,0,0,0,0,0,0,0,0,0,3.4714,3.4715,3.4748,3.4748,3.4748,3.4756,3.4756,3.4756,3.4738,3.4737,3.4736,3.4736,3.4743,3.4744,3.4745,0,0,0,0,0,0,0,0,0,0,0,0,0,3.4726,3.4715,3.4748,3.474,3.4739,3.4756,3.4756,3.4756,3.4738,3.4737,3.4736,3.4735,3.4743,3.4744,3.4745,3.477,0,0,3.4749,3.4749,0,0,0,0,0,0,0,0,3.4726,3.4728,3.4741,3.474,3.474,3.4745,3.4747,3.4761,3.4738,3.4738,3.4736,3.4735,3.4745,3.4746,3.4749,3.4771,3.4771,3.4749,3.475,3.475,3.475,0,0,0,0,0,0,0,3.4725,3.4727,3.4751,3.4741,3.474,3.4735,3.4736,3.475,3.4746,3.4738,3.4737,3.4738,3.4744,3.4748,3.4749,3.4771,3.4749,3.475,3.4751,3.4751,3.4813,3.4814,0,0,0,0,0,0,3.4725,3.4727,3.4751,3.4751,3.473,3.4737,3.4737,3.4744,3.4746,3.4746,3.4739,3.4737,3.4747,3.4748,3.475,3.4779,3.475,3.4751,3.4752,3.4812,3.4814,3.4815,0,0,0,0,0,0,3.4725,3.4728,3.475,3.4739,3.4741,3.4738,3.4746,3.4745,3.4749,3.4747,3.4746,3.4744,3.4746,3.4748,3.4765,3.4779,3.4752,3.4753,3.4811,3.4813,3.4814,3.4838,0,0,0,0,0,0,3.4724,3.4727,3.4737,3.4739,3.4742,3.4766,3.4747,3.4746,3.4751,3.4749,3.4751,3.4751,3.4746,3.4764,3.4767,3.478,3.4754,3.481,3.4812,3.4814,3.4836,3.484,3.4844,0,0,0,0,0,3.4723,3.4743,3.4738,3.4741,3.4754,3.4767,3.4769,3.4763,3.4752,3.4762,3.476,3.475,3.4777,3.4766,3.4769,3.4783,3.4809,3.4811,3.4814,3.4834,3.4839,3.4843,0,0,0,0,0,0,3.4742,3.4743,3.4737,3.4759,3.4763,3.4764,3.4776,3.4768,3.4776,3.4773,3.4765,3.4766,3.4785,3.4785,3.4773,3.4807,3.4791,3.4794,3.4806,3.4811,3.4814,3.4814,3.4755,0,0,0,0,0,3.475,3.4761,3.4761,3.478,3.4782,3.4779,3.4785,3.478,3.4784,3.4785,3.4785,3.4789,3.4798,3.4804,3.4813,3.4836,3.4836,3.4847,3.4851,3.4854,3.4856,3.4869,3.4874,3.4822,3.4822,3.4822,0,0,3.4764,3.4766,3.4773,3.4784,3.4787,3.4798,3.4781,3.4793,3.4802,3.4787,3.4804,3.4804,3.4808,3.4828,3.4837,3.4829,3.4871,3.4857,3.4859,3.486,3.4872,3.4876,3.4881,3.4823,3.4823,3.4823,0,0,3.4796,3.4799,3.4815,3.4819,3.4823,3.4821,3.4825,3.4827,3.4826,3.4843,3.4832,3.4842,3.4858,3.4861,3.4865,3.4899,3.489,3.4901,3.4921,3.4933,3.4938,3.4941,3.4953,3.4958,3.4904,3.4904,3.4904,0,3.4814,3.4831,3.4825,3.4839,3.4843,3.4831,3.4848,3.4851,3.4858,3.4861,3.4852,3.4872,3.4874,3.4895,3.4903,3.4907,3.4911,3.4901,3.4938,3.4941,3.4944,3.4956,3.496,3.4906,3.4905,3.4905,3.4905,0,3.4852,3.4864,3.4877,3.4885,3.4891,3.4906,3.4902,3.4909,3.4903,3.4902,3.4919,3.492,3.4929,3.4933,3.4928,3.4954,3.4949,3.4939,3.4923,3.4951,3.4961,3.4966,3.4908,3.4907,3.4907,3.4906,0,0,3.4897,3.4901,3.4906,3.4909,3.4914,3.4923,3.4937,3.4946,3.4952,3.4957,3.4969,3.4983,3.4974,3.4978,3.4973,3.4983,3.501,3.4972,3.4972,3.4979,3.5039,3.5046,3.5051,3.5004,3.5005,3.5006,3.5038,0,3.4929,3.4955,3.495,3.4974,3.4985,3.4974,3.4986,3.499,3.4989,3.4998,3.4996,3.5006,3.4994,3.4996,3.5006,3.5005,3.5022,3.5002,3.5015,3.5016,3.5015,3.5057,3.5065,3.5096,3.5043,3.5043,3.5044,0,3.497,3.4978,3.5004,3.5006,3.501,3.5022,3.5029,3.5038,3.5042,3.5041,3.5046,3.5038,3.5052,3.5036,3.5055,3.5042,3.5047,3.5047,3.5048,3.5049,3.5031,3.5059,3.5105,3.511,3.505,3.505,3.5049,0,3.5001,3.5017,3.5035,3.5038,3.5041,3.5049,3.5051,3.5054,3.506,3.5066,3.507,3.5078,3.5082,3.5088,3.5083,3.5072,3.5103,3.5087,3.5102,3.5102,3.5109,3.5109,3.5157,3.5112,3.5112,3.5112,3.5112,0,3.5037,3.5054,3.5048,3.5059,3.5077,3.5071,3.5089,3.5089,3.5092,3.5102,3.5092,3.5102,3.5095,3.5104,3.5101,3.5117,3.5119,3.5118,3.5117,3.5119,3.5119,3.5122,3.512,3.5113,3.5113,3.5113,3.5113,0,3.5075,3.5072,3.509,3.5092,3.5093,3.5106,3.5107,3.5117,3.5115,3.5129,3.5131,3.5129,3.5139,3.5135,3.5146,3.5143,3.5164,3.516,3.5163,3.5162,3.5178,3.5176,3.5229,3.5236,3.5187,3.5188,3.5188,0,3.5098,3.5111,3.5114,3.512,3.5123,3.5134,3.5139,3.5133,3.514,3.5145,3.5155,3.5164,3.5172,3.5189,3.5187,3.5196,3.5192,3.521,3.5193,3.5195,3.5192,3.5192,3.5193,3.5213,3.5214,3.5214,3.5215,0,3.5141,3.5139,3.5148,3.5156,3.5164,3.517,3.5175,3.5181,3.5175,3.5183,3.5194,3.52,3.5211,3.5221,3.5228,3.5229,3.5221,3.522,3.5224,3.5226,3.5228,3.5227,3.5172,3.5219,3.5218,3.5218,3.5218,3.5218,3.5172,3.5182,3.5186,3.5197,3.52,3.5206,3.5215,3.5215,3.5224,3.5233,3.5228,3.5241,3.5244,3.5254,3.5256,3.5265,3.5258,3.5264,3.5266,3.5267,3.5269,3.5226,3.5267,3.5267,3.5266,3.5266,3.5266,0,3.5214,3.5216,3.5225,3.5234,3.5242,3.5234,3.5239,3.5246,3.5258,3.5262,3.5269,3.5282,3.5291,3.529,3.5299,3.5307,3.5303,3.5309,3.5309,3.5309,3.5275,3.5271,3.5312,3.5312,3.5312,3.5312,3.5312,3.5312,3.5237,3.5254,3.5253,3.5271,3.5273,3.5286,3.529,3.5294,3.5298,3.5312,3.532,3.532,3.5322,3.533,3.5339,3.5338,3.5342,3.5349,3.5347,3.5316,3.5311,3.5307,3.5303,3.535,3.535,3.538,3.5381,3.5381]}]]